Location: Drocourt
(49.0571°N, 1.7669°E)
Time: 20:20:18
(UTC+00:00)

S-56A Canister/Altair - Pass Details

Date: 18 April 2024
Orbit: 638 x 2488 km, 38.9° (Epoch: 20 May)

Event Time Altitude Azimuth Distance (km) Brightness Sun altitude
Rises 17:58:46 0° 234° (SW) 3,389 11.6 7.4°
Reaches altitude 10° 18:01:09 10° 225° (SW) 2,629 10.9 7.0°
Maximum altitude 18:06:47 35° 161° (SSE) 1,818 9.3 6.1°
Drops below altitude 10° 18:14:48 10° 101° (E) 3,769 10.4 4.8°
Sets 18:18:55 0° 94° (E) 5,080 11.0 4.1°
